Date String (YYYY-MM-DD hh:mm:ss) UTC,Instrument flags,Ambient pressure (hPa),Sample flow (lpm),Bypass flow (lpm),Sample temperature (°C),Ambient temperature (°C),ASC tube jacket temperature (°C),LED temperature (°C),Box temperature (°C),Sample RH (%),Span deviation,Mass concentration (μg/m³),Mass concentration (μg/m³),Mass concentration (μg/m³)
DateTimeUTC,F1_M11,P_M11,Q1_M11,Q2_M11,T1_M11,T2_M11,T3_M11,T4_M11,T5_M11,U1_M11,ZSPAN_M11,X2_M11,X0_M11,X1_M11
2022-02-17 17:00:00,,0828.5,4.99,0.00,21.7,21.1,00.0,30.9,23.3,08.7,0000.0,0005.65,0008.53,0005.42
2022-02-17 17:01:00,,0828.4,5.01,0.00,21.7,21.0,00.0,30.9,23.3,08.6,0000.0,0005.69,0008.62,0005.44
2022-02-17 17:02:00,,0828.5,5.01,0.00,21.7,20.9,00.0,30.8,23.3,08.7,0000.0,0005.72,0008.70,0005.45
2022-02-17 17:03:00,,0828.5,4.99,0.00,21.6,20.8,00.0,30.8,23.2,08.6,0000.0,0005.75,0008.78,0005.47
2022-02-17 17:04:00,,0828.5,4.99,0.00,21.6,20.7,00.0,30.8,23.2,08.7,0000.0,0005.78,0008.83,0005.48
2022-02-17 17:05:00,,0828.5,5.01,0.00,21.6,20.6,00.0,30.8,23.2,08.7,0000.0,0005.78,0008.75,0005.50
2022-02-17 17:06:00,,0828.4,5.00,0.00,21.5,20.6,00.0,30.7,23.1,08.7,0000.0,0005.78,0008.57,0005.51
2022-02-17 17:07:00,,0828.4,4.99,0.00,21.5,20.5,00.0,30.7,23.1,08.6,0000.0,0005.79,0007.96,0005.52
2022-02-17 17:08:00,,0828.4,5.01,0.00,21.5,20.5,00.0,30.7,23.0,08.7,0000.0,0005.81,0008.04,0005.53
2022-02-17 17:09:00,,0828.4,4.99,0.00,21.5,21.1,00.0,30.7,23.1,08.8,0000.0,0005.81,0008.08,0005.52
2022-02-17 17:10:00,,0828.4,5.02,0.00,21.6,22.3,00.0,30.7,23.4,08.6,0000.0,0005.81,0008.09,0005.51
2022-02-17 17:11:00,,0828.4,5.00,0.00,21.8,22.9,00.0,30.7,23.7,08.5,0000.0,0005.80,0008.04,0005.50
2022-02-17 17:12:00,,0828.3,4.98,0.00,21.8,22.6,00.0,30.7,23.7,08.5,0000.0,0005.78,0008.00,0005.49
2022-02-17 17:13:00,,0828.3,5.01,0.00,21.8,22.3,00.0,30.8,23.6,08.5,0000.0,0005.75,0008.02,0005.47
2022-02-17 17:14:00,,0828.3,5.01,0.00,21.8,22.0,00.0,30.8,23.5,08.5,0000.0,0005.73,0008.14,0005.45
2022-02-17 17:15:00,,0828.3,5.00,0.00,21.8,21.8,00.0,30.8,23.4,08.4,0000.0,0005.69,0008.07,0005.43
2022-02-17 17:16:00,,0828.2,5.00,0.00,21.7,21.6,00.0,30.8,23.3,08.5,0000.0,0005.67,0008.05,0005.41
2022-02-17 17:17:00,,0828.1,5.00,0.00,21.7,21.3,00.0,30.7,23.3,08.5,0000.0,0005.66,0008.06,0005.40
2022-02-17 17:18:00,,0828.3,4.99,0.00,21.6,21.1,00.0,30.7,23.2,08.6,0000.0,0005.67,0008.26,0005.39
2022-02-17 17:19:00,,0828.2,5.00,0.00,21.6,21.0,00.0,30.7,23.2,08.6,0000.0,0005.66,0008.40,0005.39
2022-02-17 17:20:00,,0828.2,5.01,0.00,21.6,21.0,00.0,30.7,23.2,08.6,0000.0,0005.64,0008.35,0005.40
2022-02-17 17:21:00,,0828.3,5.01,0.00,21.5,20.9,00.0,30.7,23.2,08.8,0000.0,0005.63,0008.39,0005.39
2022-02-17 17:22:00,,0828.3,5.01,0.00,21.5,20.9,00.0,30.7,23.2,08.8,0000.0,0005.62,0008.36,0005.37
2022-02-17 17:23:00,,0828.3,5.00,0.00,21.5,20.9,00.0,30.6,23.2,08.7,0000.0,0005.62,0008.32,0005.39
2022-02-17 17:24:00,,0828.3,4.99,0.00,21.5,20.9,00.0,30.6,23.1,08.6,0000.0,0005.63,0008.71,0005.41
2022-02-17 17:25:00,,0828.3,4.99,0.00,21.5,20.8,00.0,30.6,23.1,08.6,0000.0,0005.63,0008.61,0005.42
2022-02-17 17:26:00,,0828.2,4.99,0.00,21.5,20.8,00.0,30.6,23.1,08.6,0000.0,0005.65,0008.99,0005.43
2022-02-17 17:27:00,,0828.2,5.00,0.00,21.5,20.8,00.0,30.6,23.1,08.7,0000.0,0005.66,0009.08,0005.45
2022-02-17 17:28:00,,0828.2,5.00,0.00,21.5,20.8,00.0,30.6,23.1,08.7,0000.0,0005.67,0009.10,0005.46
2022-02-17 17:29:00,,0828.1,4.99,0.00,21.5,21.2,00.0,30.6,23.2,08.7,0000.0,0005.69,0008.99,0005.47
2022-02-17 17:30:00,,0828.2,5.02,0.00,21.6,22.3,00.0,30.6,23.5,08.6,0000.0,0005.69,0008.73,0005.48
2022-02-17 17:31:00,,0828.1,4.99,0.00,21.8,23.1,00.0,30.7,23.8,08.5,0000.0,0005.68,0008.71,0005.49
2022-02-17 17:32:00,,0828.3,5.00,0.00,21.9,22.9,00.0,30.7,23.9,08.5,0000.0,0005.69,0008.92,0005.49
2022-02-17 17:33:00,,0828.2,5.00,0.00,21.9,22.6,00.0,30.7,23.8,08.5,0000.0,0005.72,0009.11,0005.51
2022-02-17 17:34:00,,0828.1,4.99,0.00,21.9,22.3,00.0,30.8,23.7,08.5,0000.0,0005.75,0009.17,0005.53
2022-02-17 17:35:00,,0828.1,5.01,0.00,21.9,22.1,00.0,30.8,23.6,08.5,0000.0,0005.78,0008.70,0005.56
2022-02-17 17:36:00,,0828.1,5.01,0.00,21.9,21.9,00.0,30.8,23.6,08.5,0000.0,0005.81,0008.69,0005.58
2022-02-17 17:37:00,,0828.1,5.00,0.00,21.8,21.7,00.0,30.8,23.5,08.5,0000.0,0005.83,0008.36,0005.61
2022-02-17 17:38:00,,0828.1,4.99,0.00,21.8,21.4,00.0,30.8,23.5,08.6,0000.0,0005.86,0008.42,0005.63
2022-02-17 17:39:00,,0828.0,5.00,0.00,21.8,21.1,00.0,30.8,23.4,08.6,0000.0,0005.87,0008.40,0005.65
2022-02-17 17:40:00,,0828.2,5.01,0.00,21.7,21.0,00.0,30.8,23.4,08.6,0000.0,0005.88,0008.39,0005.68
2022-02-17 17:41:00,,0828.3,4.99,0.00,21.7,20.9,00.0,30.8,23.3,08.7,0000.0,0005.93,0008.45,0005.70
2022-02-17 17:42:00,,0828.0,5.00,0.00,21.7,20.8,00.0,30.7,23.3,08.7,0000.0,0005.95,0008.46,0005.72
2022-02-17 17:43:00,,0828.2,5.02,0.00,21.6,20.7,00.0,30.7,23.2,08.8,0000.0,0006.00,0008.29,0005.76
2022-02-17 17:44:00,,0828.1,4.99,0.00,21.6,20.6,00.0,30.7,23.2,08.8,0000.0,0006.04,0008.18,0005.79
2022-02-17 17:45:00,,0828.0,5.00,0.00,21.5,20.4,00.0,30.7,23.1,08.8,0000.0,0006.05,0008.17,0005.81
2022-02-17 17:46:00,,0828.0,5.01,0.00,21.5,20.3,00.0,30.6,23.0,08.8,0000.0,0006.05,0008.34,0005.81
2022-02-17 17:47:00,,0828.0,4.99,0.00,21.4,20.4,00.0,30.6,23.0,08.7,0000.0,0006.04,0008.49,0005.81
2022-02-17 17:48:00,,0828.0,5.00,0.00,21.4,20.5,00.0,30.6,22.9,08.7,0000.0,0006.05,0008.77,0005.82
2022-02-17 17:49:00,,0828.0,5.00,0.00,21.4,20.6,00.0,30.6,22.9,08.7,0000.0,0006.02,0008.76,0005.81
2022-02-17 17:50:00,,0828.0,5.00,0.00,21.4,20.6,00.0,30.6,22.9,08.8,0000.0,0006.00,0008.77,0005.79
2022-02-17 17:51:00,,0828.0,5.00,0.00,21.4,20.7,00.0,30.5,23.0,08.9,0000.0,0005.99,0008.74,0005.78
2022-02-17 17:52:00,,0828.0,4.99,0.00,21.3,20.7,00.0,30.5,22.9,08.8,0000.0,0005.96,0008.73,0005.76
2022-02-17 17:53:00,,0828.0,4.99,0.00,21.3,20.7,00.0,30.5,22.9,08.8,0000.0,0005.93,0008.71,0005.74
2022-02-17 17:54:00,,0828.0,5.01,0.00,21.4,21.4,00.0,30.5,23.1,08.9,0000.0,0005.88,0008.61,0005.71
2022-02-17 17:55:00,,0828.0,5.01,0.00,21.6,22.5,00.0,30.6,23.5,08.9,0000.0,0005.82,0008.51,0005.66
2022-02-17 17:56:00,,0828.0,5.00,0.00,21.7,22.8,00.0,30.6,23.7,08.7,0000.0,0005.76,0008.44,0005.62
2022-02-17 17:57:00,,0828.0,5.00,0.00,21.8,22.5,00.0,30.6,23.7,08.6,0000.0,0005.72,0008.27,0005.58
2022-02-17 17:58:00,,0827.9,5.00,0.00,21.8,22.3,00.0,30.7,23.6,08.6,0000.0,0005.70,0008.08,0005.54
2022-02-17 17:59:00,,0827.9,5.00,0.00,21.8,22.0,00.0,30.7,23.6,08.5,0000.0,0005.67,0007.79,0005.51
